This is the latest recevied weather packets stored in our database for station/object SP2NBH-2. If no packets are shown the sender has not sent any weather packets the latest 10 day(s).
| Time | Temp. | Humidity | Pressure | Rain* | Wind** | Luminosity | Snow |
|---|---|---|---|---|---|---|---|
| 1777536665 | 11.67° C | 34% | 1031 hPa | - | - | - | - |
| 1777535765 | 11.11° C | 35% | 1031 hPa | - | - | - | - |
| 1777534865 | 10.56° C | 36% | 1031.2 hPa | - | - | - | - |
| 1777533965 | 10.56° C | 38% | 1031.4 hPa | - | - | - | - |
| 1777532256 | 8.89° C | 40% | 1031.9 hPa | - | - | - | - |
| 1777531356 | 8.33° C | 40% | 1031.9 hPa | - | - | - | - |
| 1777530456 | 7.22° C | 42% | 1031.9 hPa | - | - | - | - |
| 1777529556 | 7.22° C | 44% | 1032 hPa | - | - | - | - |
| 1777528656 | 6.67° C | 45% | 1032 hPa | - | - | - | - |
| 1777527759 | 6.11° C | 44% | 1032.1 hPa | - | - | - | - |
| 1777526856 | 5° C | 48% | 1032 hPa | - | - | - | - |
| 1777525956 | 4.44° C | 49% | 1032 hPa | - | - | - | - |
| 1777524155 | 3.89° C | 50% | 1032.1 hPa | - | - | - | - |
| 1777523255 | 3.33° C | 51% | 1032.1 hPa | - | - | - | - |
| 1777522355 | 3.33° C | 54% | 1032.1 hPa | - | - | - | - |
| 1777521455 | 2.78° C | 54% | 1032.2 hPa | - | - | - | - |
| 1777520555 | 2.78° C | 55% | 1032.1 hPa | - | - | - | - |
| 1777519689 | 2.22° C | 55% | 1032.2 hPa | - | - | - | - |
| 1777519655 | 2.22° C | 55% | 1032.2 hPa | - | - | - | - |
| 1777518755 | 2.22° C | 54% | 1032.3 hPa | - | - | - | - |
| 1777517890 | 2.22° C | 54% | 1032.3 hPa | - | - | - | - |
| 1777517855 | 2.22° C | 54% | 1032.3 hPa | - | - | - | - |
| 1777516955 | 2.22° C | 55% | 1032.4 hPa | - | - | - | - |
| 1777516055 | 2.22° C | 56% | 1032.3 hPa | - | - | - | - |
| 1777515155 | 2.22° C | 57% | 1032.4 hPa | - | - | - | - |
* Rain since midnight (hover to see other rain measurements)
** Current wind speed in m/s (hover to see current wind gust speed)